SCOUT A DEB, 2889

Orbit data source: Space-Track

SCOUT A DEB, 2889 is space debris in LEO originally from a launch on Fri, 28 Jan 1966 UTC launched from the Air Force Western Test Range (AFWTR). Debris objects in space refer to the collection of defunct objects orbiting the Earth. Examples of debris include non-operational satellites, rocket bodies, and fragments generated from explosions, collisions, or faulty payload assembly.

Loading next visibility...
Identifier
2889, 1966-005E
Orbit
LEO
Country
Flag of USUS
Related business
Manufacturer
Unknown
Mission
Spacecraft
Bus & Motor
Unknown
Mass
Unknown
Launch date (UTC)
1966-01-28 (60 years ago)
Launch vehicle
Unknown
Launch site
Air Force Western Test Range (AFWTR)
Object type
Payload
Rocket body
Debris
Shape & HBR
Unknown shape, 0.1 m
Radar Cross Section
Small (<0.1 m²)

Expand to show TLE details & history
Last TLE update: 1 day ago

TLE from 1 day ago
0 SCOUT A DEB
1  2889U 66005E   25310.89656574  .00000180  00000-0  40445-3 0  9994
2  2889  89.5450 167.6542 0167852  45.8382  16.5246 13.17973989807118
Epoch: 2025-11-06T21:31Z
TLE epoch observation values (Epoch: 2025-11-06T21:31:03.279Z)
Latitude
63.00326°
Longitude
159.4308°
Altitude
1,081.696 km
Speed
7.376 km/s
True Right ascension
11h 14m 10s
True Declination
62° 52' 12"
Sunlit
Object was in daylight at epoch
Visualization orbit readout
Latitude
Unknown
Longitude
Unknown
Altitude
Unknown
Speed
Unknown
Apparent Right ascension
Unknown
Apparent Declination
Unknown
Sunlit
N/A
Visualization observer readout
Local Sidereal Time
17:12:55
Azimuth
Unknown
Elevation
Unknown
Doppler factor
Unknown
Orbital elements
Apogee altitude
1,316.59 km
Perigee altitude
1,062.539 km
Semi-major axis
7,567.702 km
Eccentricity
0.01679
Inclination
89.545°
RAAN
167.6542°
Arg. of periapsis
45.8382°
True anomaly
17.08289°
Mean anomaly
16.5246°
Eccentric anomaly
16.80261°
Mean motion
3.29683 °/min
Orbital period
109.2 mins
BSTAR
0.00040445
Loading maneuver chart data...
Computing Atmospheric mass density...
Loading historical data...
Loading historical data...
Loading historical data...
Loading historical data...
Loading historical data...
Loading historical data...
Loading historical data...

Documentation

Showing up to 5 results
|